CAPE
0 0 0 0 0 0 1 3 2 2 1 0 0 0 0 0 0 0 0 0 0 0 0 0 0 0 0 0 0 0 0 0 0 0 0 0 0 0 0 0 0 0 0 0 0 0 0
1 5 3 0 0 0 0 0 0 0 0 0 0 0 0 0 0 0 0 0 0 0 0 0 0 0 0 0 0 0 0 0 0 0 0 0 0 0 0 0 0 0 0 0 0 0 0
5 0 0 0 0 0 0 0 0 0 0 0 0 0 0 0 0 0 0 0 0 0 0 0 0 0 0 0 0 0 0 0 0 0 0 0 0 0 0 0 0 0 0 0 0 0 0
0 0 0 0 0 0 0 0 0 0 0 0 0 0 0 0 0 0 0 0 0 0 0 0 0 0 0 0 0 0 0 0 0 0 0 0 0 0 0 0 0 0 0 0 0 0 0
0 0 0 0 0 0 0 0 0 0 0 0 0 0 0 0 0 0 0 0 0 0 0 0 0 0 0 0 0 0 0 0 0 0 0 0 0 0 0 0 0 0 0 0 0 0 0
0 0 0 0 0 0 0 0 0 0 0 0 0 0 0 0 0 0 0 0 0 0 0 0 0 0 0 0 0 0 0 0 0 0 0 0 0 0 0 0 0 0 0 0 0 0 0
0 0 0 0 0 0 0 0 0 0 0 0 0 0 0 0 0 0 0 0 0 0 0 0 0 0 0 0 0 0 0 0 0 0 0 0 0 0 0 0 0 0 0 0 0 0 0
0 0 0 0 0 0 0 0 0 0 0 0 0 0 0 0 0 0 0 0 0 0 0 0 0 0 0 0 0 0 0 0 0 0 0 0 0 0 0 0 0 0 0 0 0 0 0
0 0 0 0 0 0 0 0 0 0 0 0 0 0 0 0 0 0 0 0 0 0 0 0 0 0 0 0 0 0 0 0 0 0 0 0 0 0 0 0 0 0 0 0 0 0 0
1 2 0 0 0 0 0 0 0 0 0 0 0 0 0 0 0 0 0 0 0 0 0 0 0 0 0 0 0 0 0 0 0 0 0 0 0 0 0 0 0 0 0 0 0 0 0
5 0 0 0 0 0 0 0 0 0 0 0 0 0 0 0 0 0 0 0 0 0 0 0 0 0 0 0 0 0 0 0 0 0 0 0 0 0 0 0 0 0 0 0 0 0 0
1 0 0 0 0 0 0 0 0 1 1 0 0 0 0 0 0 0 0 0 0 0 0 0 0 0 0 0 0 0 0 0 0 0 0 0 0 0 0 0 0 0 0 0 0 0 0
0 0 0 0 0 0 0 0 0 0 1 3 0 0 0 0 0 0 0 0 0 0 0 0 0 0 0 0 0 0 0 0 0 0 0 0 0 0 0 0 0 0 0 0 0 0 0
0 0 0 0 0 0 0 0 0 0 0 0 6 0 2 0 6 0 0 0 0 0 0 0 0 0 0 0 0 0 0 0 0 0 0 0 0 0 0 0 0 0 0 0 0 0 1
0 0 0 0 0 0 0 0 0 0 0 0 0 1 3 37 6 0 0 0 0 0 0 0 0 0 0 0 0 0 0 0 0 0 0 0 0 0 0 0 0 0 0 0 0 0 0
0 0 0 0 0 0 0 0 0 0 0 0 11 14 8 5 6 1 9 0 0 0 0 0 0 0 0 0 0 0 0 0 0 0 0 0 0 0 2 0 0 0 0 0 3 0 1
0 1 1 0 0 0 0 0 0 0 0 0 15 11 17 30 23 33 6 1 0 0 0 0 0 0 0 0 0 0 0 0 0 0 0 0 9 0 12 3 0 1 0 0 0 1 11
3 1 0 0 0 0 0 0 0 0 0 0 24 10 25 53 9 10 4 0 0 0 1 0 0 0 0 0 0 0 0 0 0 0 0 0 1 0 0 0 0 9 0 2 3 2 12
0 0 0 0 0 0 0 0 0 0 0 32 14 11 34 41 8 8 6 5 2 2 3 4 5 2 0 1 2 4 0 0 0 0 0 0 0 4 0 0 0 0 2 2 0 0 0
3 0 0 0 0 0 0 0 0 0 0 10 6 2 32 9 20 21 13 8 14 9 8 8 10 25 14 14 3 1 0 1 0 0 0 0 0 0 0 0 0 0 0 5 4 0 0
0 0 0 0 0 0 0 1 0 0 0 11 29 2 30 3 4 7 31 12 4 6 3 8 8 9 17 10 3 2 3 2 4 3 0 0 0 0 0 0 0 0 0 0 0 0 1
0 0 0 0 0 0 0 0 3 0 4 12 7 1 12 0 4 15 14 12 12 3 1 2 11 1 3 1 2 0 0 3 13 8 0 0 0 4 0 0 0 0 0 0 0 0 0
0 0 0 1 0 0 0 0 0 1 12 23 16 19 6 0 7 5 0 5 5 9 0 1 0 0 2 1 7 11 26 12 14 8 6 6 8 8 0 8 8 0 0 0 0 1 8
1 1 0 1 5 5 1 0 0 0 0 12 10 17 21 0 2 4 1 11 9 20 5 8 12 7 2 25 15 19 17 2 6 15 13 9 13 18 2 12 5 0 8 17 23 19 19
0 3 2 8 4 0 0 10 0 0 0 7 13 25 15 2 0 0 0 3 2 6 2 6 10 8 47 0 0 0 3 3 0 5 7 16 17 17 20 16 6 4 8 9 0 0 18
1 1 7 3 2 5 0 0 5 15 4 4 12 27 31 12 0 6 10 3 3 1 6 13 13 16 41 4 0 0 1 4 3 23 9 16 27 35 23 26 11 11 0 29 27 0 38
4 3 2 3 1 0 0 0 2 3 6 9 6 24 37 31 0 2 5 8 21 33 9 21 23 13 15 0 4 6 11 14 12 3 51 44 58 59 65 30 53 39 35 18 2 18 125
4 6 8 7 2 1 0 1 5 10 13 15 5 25 34 21 4 12 14 19 18 22 12 20 6 24 6 3 9 30 11 33 24 2 23 14 55 110 81 114 78 97 47 21 35 117 49
5 3 3 10 10 6 0 0 7 21 42 46 17 23 30 54 0 2 2 12 11 19 13 13 11 3 16 0 1 61 16 45 132 34 20 14 44 61 23 102 26 67 36 67 129 77 25
CIN
0 0 0 0 0 0 -7 -7 -6 -7 -8 0 0 0 0 0 0 0 0 0 0 0 0 0 0 0 0 0 0 0 0 0 0 0 0 0 0 0 0 0 0 0 0 0 0 0 0
-8 -8 -7 -10 -4 0 0 0 -6 -10 0 0 0 0 0 0 0 0 0 0 0 0 0 0 0 0 0 0 0 0 0 0 0 0 0 0 0 0 0 0 0 0 0 0 0 0 0
-5 -19 0 0 0 0 0 0 0 0 0 0 0 0 0 0 0 0 0 0 0 0 0 0 0 0 0 0 0 0 0 0 0 0 0 0 0 0 0 0 0 0 0 0 0 0 0
0 0 0 0 0 0 0 0 0 0 0 0 0 0 0 0 0 0 0 0 0 0 0 0 0 0 0 0 0 0 0 0 0 0 0 0 0 0 0 0 0 0 0 0 0 0 0
0 0 0 0 0 0 0 0 0 0 0 0 0 0 0 0 0 0 0 0 0 0 0 0 0 0 0 0 0 0 0 0 0 0 0 0 0 0 0 0 0 0 0 0 0 0 0
0 0 0 0 0 0 0 0 0 0 0 0 0 0 0 0 0 0 0 0 0 0 0 0 0 0 0 0 0 0 0 0 0 0 0 0 0 0 0 0 0 0 0 0 0 0 0
0 0 0 0 0 0 0 0 0 0 0 0 0 0 0 0 0 0 0 0 0 0 0 0 0 0 0 0 0 0 0 0 0 0 0 0 0 0 0 0 0 0 0 0 0 0 0
0 0 0 0 0 0 0 0 0 0 0 0 0 0 0 0 0 0 0 0 0 0 0 0 0 0 0 0 0 0 0 0 0 0 0 0 0 0 0 0 0 0 0 0 0 0 0
0 0 0 0 0 0 0 0 0 0 0 0 0 0 0 0 0 0 0 0 0 0 0 0 0 0 0 0 0 0 0 0 0 0 0 0 0 0 0 0 0 0 0 0 0 0 0
-0 0 0 0 0 0 0 0 0 0 0 0 0 0 0 0 0 0 0 0 0 0 0 0 0 0 0 0 0 0 0 0 0 0 0 0 0 0 0 0 0 0 0 0 0 0 0
-0 0 0 0 0 0 0 0 0 0 0 0 0 0 0 0 0 0 0 0 0 0 0 0 0 0 0 0 0 0 0 0 0 0 0 0 0 0 0 0 0 0 0 0 0 0 0
-14 0 0 0 0 0 0 0 0 -1 -0 0 0 0 0 0 0 0 0 0 0 0 0 0 0 0 0 0 0 0 0 0 0 0 0 0 0 0 0 0 0 0 0 0 0 0 0
0 0 0 0 0 0 0 0 0 0 -4 -2 -2 0 0 0 -0 0 0 0 0 0 0 0 0 0 0 0 0 0 0 0 0 0 0 0 0 0 0 0 0 0 0 0 0 0 0
0 0 0 0 0 0 0 0 0 0 0 0 -0 -7 -1 -1 -1 0 0 0 0 0 0 0 0 0 0 0 0 0 0 0 0 0 0 0 0 0 0 0 0 0 0 0 0 0 -5
0 0 0 0 0 0 0 0 0 0 0 0 0 -4 -19 -1 -6 0 0 0 0 0 0 0 0 0 0 0 0 0 0 0 0 0 0 0 0 0 0 0 0 0 0 0 0 0 -0
0 0 0 0 0 0 0 0 0 0 0 0 -1 -0 -1 -1 -14 -0 -1 0 0 0 0 0 0 0 0 0 0 0 0 0 0 0 0 0 0 0 -9 0 0 0 0 -2 -8 0 -2
0 -1 -2 0 0 0 0 0 0 0 0 0 -0 -0 -3 -1 -3 -0 0 -0 0 0 0 0 0 0 0 0 0 0 0 0 0 0 -4 -1 -4 -1 -7 -7 -8 -8 0 0 0 -3 -8
-0 -1 0 0 0 0 0 0 0 0 0 0 -0 -0 -0 -0 -0 -0 -0 -0 0 0 -2 0 0 0 0 0 0 0 0 0 0 0 0 -0 -11 -0 -1 0 -1 -17 -1 -19 -27 -9 -9
0 0 0 0 0 0 0 0 0 0 0 -0 -0 -0 -3 -0 0 -0 -1 -2 -2 -3 -5 -6 -6 -7 -2 -5 -2 -3 0 0 -1 0 0 0 0 -12 -2 -1 0 -3 -9 -9 -2 -12 0
-0 0 0 0 0 0 0 0 0 0 0 -0 -0 -0 -0 -1 -0 -0 -1 -2 -1 -4 -3 -3 -5 -4 -5 -3 -6 -1 0 -4 0 0 0 0 0 0 0 0 0 0 -0 -9 -12 -10 -0
0 0 0 0 0 0 0 -2 0 0 0 -1 -0 -1 -1 -1 -0 0 0 -2 -2 -4 -6 -4 -2 -4 -1 -0 -1 -1 -4 -4 -7 -6 0 -0 0 0 0 0 0 0 0 0 0 0 -3
0 0 0 0 0 0 0 0 -2 0 -3 -1 -1 -0 -3 0 -0 -1 -0 0 -0 -2 -1 -5 -1 -1 -5 -14 -5 -2 -9 -10 -5 -7 -0 0 0 -3 0 0 0 0 0 0 0 0 0
0 0 0 -1 0 0 0 0 0 -0 -2 -1 -2 -3 -2 -0 -1 -3 -0 -1 -2 -3 0 -3 0 0 -7 -0 -5 -0 -1 -1 -3 -4 -3 -11 -3 -5 -2 -4 -7 -2 0 0 -1 -4 -9
-0 0 0 -0 0 -0 -0 0 0 0 -1 -1 -2 -1 -0 -1 -2 -5 -3 -4 -2 -2 -1 -1 -1 -0 -2 -0 -1 -0 -0 -1 -1 -4 -3 -4 -4 -3 -2 -5 -8 0 -4 -9 -9 -7 -10
-0 -0 -0 -0 0 0 0 -0 0 0 0 -1 -0 -0 -0 -1 -1 0 -1 -9 -8 -7 -7 -2 -1 -2 -1 -1 0 -0 -0 -1 0 -4 -6 -7 -4 -5 -0 -3 -5 -6 -8 -13 -2 0 -11
0 0 -0 -0 -0 -0 0 0 -1 -1 -3 -2 -1 -1 0 0 0 -3 -4 -3 -12 -14 -4 -5 -4 -2 -0 -1 -0 0 -1 -5 -5 -3 -9 -8 -6 -4 -2 -2 -1 -5 0 -18 -34 -2 -6
-0 -1 -1 -0 -1 0 0 0 -0 -0 -1 -1 -3 -2 -0 -0 0 -1 -3 -2 -2 -2 -5 -2 -2 -4 -6 0 -1 -1 -2 -3 -2 -5 -6 -3 -9 -2 -5 -3 -2 -7 -22 -28 -24 -9 -1
-1 -0 -0 -1 -1 -1 0 -0 -0 -0 -1 -1 -2 -2 -1 -0 -3 -2 -2 -2 -2 -7 -11 -8 -19 -1 -2 -0 -2 -2 -3 -5 -4 -3 -5 -4 -2 -2 -20 -3 -12 -4 -8 -12 -4 -3 -2
-0 -0 -0 -0 -0 -1 0 0 0 -0 0 -0 -1 -1 -1 -0 -2 -2 -2 -2 -1 -27 -36 -22 -10 -1 -0 -0 -1 -0 -2 -2 -3 -14 -10 -14 -6 -4 -23 -15 -71 -6 -19 -2 -3 -4 -2
Wind_Speed
12 13 13 18 20 23 25 26 28 30 31 31 28 28 29 32 35 37 39 40 42 43 42 41 41 39 33 22 23 17 21 19 18 19 18 20 20 20 15 21 20 15 18 20 19 19 21
14 15 16 21 23 25 27 27 28 29 28 25 25 27 30 32 35 38 40 41 43 43 43 42 36 31 26 26 21 20 20 17 19 20 21 20 20 21 20 18 18 28 23 24 22 18 20
15 15 18 22 24 26 28 27 26 26 22 22 24 27 31 34 37 39 41 43 44 44 41 38 31 26 25 17 21 23 16 16 17 22 24 21 21 19 23 21 20 23 24 24 19 19 19
16 17 19 20 23 24 24 23 22 21 21 22 24 27 31 34 37 39 41 43 45 44 39 28 25 24 21 21 22 18 17 15 17 27 22 20 19 20 20 23 25 22 23 26 30 12 18
16 17 17 17 19 20 21 21 20 19 20 22 25 28 30 35 39 42 44 45 41 32 25 23 22 19 20 18 16 18 18 22 28 30 20 21 20 21 21 24 28 21 28 27 16 14 20
15 16 15 17 18 19 20 20 19 19 21 23 24 28 33 36 40 43 44 42 29 24 19 18 18 21 14 14 27 29 25 24 26 25 26 20 20 21 22 23 34 33 27 25 23 18 18
15 16 15 16 17 18 19 19 19 20 22 24 25 28 32 35 37 38 38 37 28 23 23 28 25 28 19 28 35 26 23 24 20 20 23 19 19 22 25 28 28 28 33 34 30 29 33
16 16 15 16 18 19 20 20 21 21 21 22 25 27 30 33 34 32 30 28 27 27 36 28 22 22 22 22 23 19 21 17 17 21 18 18 23 24 24 26 28 27 29 32 34 30 28
16 14 15 17 18 19 20 20 20 20 21 22 24 27 30 33 29 26 28 28 26 26 31 28 19 19 17 15 16 17 17 17 17 20 19 21 25 23 24 24 25 26 28 31 33 35 35
14 14 16 18 19 20 20 20 20 21 20 22 24 27 30 33 24 27 24 28 27 23 34 26 20 16 14 16 17 15 15 19 19 24 23 25 23 24 26 26 26 32 29 28 33 32 34
15 15 15 17 19 20 21 21 21 21 21 22 23 25 28 27 27 25 27 26 24 21 40 23 20 15 15 16 21 15 16 19 23 25 23 25 25 26 27 28 25 28 26 30 32 34 36
15 14 15 17 18 20 22 22 22 22 21 21 22 24 26 21 22 24 27 26 21 29 39 24 20 20 19 18 21 21 20 19 24 27 27 28 26 26 28 29 26 25 29 28 29 31 39
13 15 17 18 19 20 21 21 21 22 23 22 23 23 23 24 26 27 26 20 31 36 25 26 25 22 23 26 26 23 23 24 27 29 29 31 25 24 24 29 24 24 28 33 35 32 36
15 16 17 16 17 19 20 22 22 23 24 25 26 23 23 24 25 25 24 23 37 33 29 24 28 28 31 31 31 29 27 29 25 26 32 33 35 27 21 24 25 20 24 29 38 37 33
14 15 15 16 17 19 21 22 23 23 24 27 24 25 25 22 21 21 24 34 37 35 32 33 29 34 36 37 34 34 32 32 30 27 28 30 32 23 19 23 24 27 27 26 36 35 38
16 17 18 20 22 22 23 24 25 25 25 24 26 27 26 20 19 21 31 38 34 27 29 27 34 34 40 39 35 31 30 27 30 26 28 31 36 28 25 20 24 27 26 28 27 36 38
14 16 19 20 21 22 22 21 23 24 24 22 23 31 23 15 17 24 40 37 33 29 28 29 34 35 37 38 37 37 36 33 26 28 27 30 32 32 28 26 28 27 27 27 31 35 40
14 16 18 20 21 20 20 21 22 23 23 19 24 34 22 17 25 27 36 33 30 35 31 32 36 39 39 39 41 41 41 36 31 28 33 34 38 39 38 36 33 34 36 30 29 33 34
15 16 17 18 19 20 21 22 24 24 23 22 26 28 23 21 36 35 34 35 34 36 39 38 37 36 36 40 43 41 40 37 37 40 39 35 34 41 41 37 37 31 34 34 36 38 41
14 15 17 18 20 21 21 22 23 23 21 21 26 34 27 27 32 37 38 40 40 35 36 37 40 39 39 40 37 34 35 33 30 31 33 31 38 40 40 37 30 30 31 32 30 34 37
16 18 19 20 20 20 21 23 21 21 20 20 25 31 29 34 34 35 36 39 42 40 37 34 36 36 37 39 37 36 35 37 34 32 32 29 36 35 39 40 43 38 31 30 33 34 39
17 18 19 19 19 21 22 22 21 20 19 23 30 31 29 36 36 37 34 37 39 40 38 37 35 30 29 32 31 32 32 30 28 26 24 23 31 31 35 35 38 40 39 40 42 44 46
18 18 19 19 20 20 20 20 19 18 16 23 23 23 28 32 33 35 35 33 33 30 30 29 30 32 31 31 30 30 34 34 31 28 26 24 25 28 36 28 31 38 33 36 37 37 39
19 19 19 18 18 19 18 19 19 19 19 22 22 24 29 39 37 37 35 34 33 30 31 32 30 33 30 31 25 26 29 31 33 29 27 29 27 26 34 30 36 31 25 24 31 34 31
20 20 20 19 19 20 21 21 21 21 21 24 24 24 26 35 33 36 35 35 38 36 35 35 36 33 30 25 24 30 29 29 27 25 23 20 23 27 29 29 30 30 31 23 25 28 28
21 20 19 19 20 20 21 21 21 20 20 23 25 22 25 29 32 30 33 33 36 38 39 40 36 30 23 26 27 29 30 28 23 20 12 13 13 18 22 27 30 25 21 15 21 32 27
21 21 21 20 19 19 19 19 19 19 19 21 24 20 24 28 28 31 29 28 30 31 36 36 32 31 24 27 31 33 30 21 23 22 18 11 12 15 15 19 22 17 15 16 25 28 23
23 23 21 20 19 18 19 19 19 19 20 22 26 25 24 29 35 37 35 33 33 34 36 30 31 25 25 25 21 27 26 22 25 22 14 15 15 16 16 18 25 22 18 20 28 24 24
19 18 17 14 13 13 13 13 14 15 14 15 21 23 24 28 34 37 37 36 36 37 38 31 29 31 24 25 24 27 23 21 21 22 10 14 18 22 20 21 19 23 24 23 23 31 32
Wind_Direction
317 321 326 322 321 318 318 319 318 317 320 321 329 331 331 329 326 322 321 322 317 315 317 322 320 326 338 340 338 359 350 350 351 348 349 343 341 340 336 328 325 320 316 316 318 312 308
310 315 320 315 314 311 313 316 319 321 323 329 330 330 328 327 325 322 319 317 312 315 317 318 329 336 337 329 343 346 347 356 357 352 347 344 340 336 329 325 320 315 314 310 309 307 305
306 312 314 310 309 310 309 314 321 326 331 333 332 330 327 323 319 321 315 308 303 302 321 325 330 335 331 322 338 336 346 348 350 346 340 342 337 335 332 326 327 318 312 310 304 299 301
301 306 308 310 310 312 317 326 329 332 334 335 332 328 324 321 320 320 316 314 308 311 321 333 335 333 331 335 331 336 340 340 341 334 335 340 337 328 323 323 318 312 312 308 312 304 308
298 300 304 310 313 315 318 325 331 335 337 335 331 326 326 321 317 313 311 313 322 330 336 338 340 341 334 344 345 338 334 328 321 322 330 332 328 318 319 315 313 310 305 308 312 313 309
292 295 302 307 312 315 319 323 328 332 333 333 333 328 324 323 317 314 316 321 332 338 345 347 344 341 345 345 324 316 317 316 318 320 318 317 321 312 311 310 302 308 308 310 309 314 313
282 289 296 303 310 315 316 320 324 327 328 329 329 328 327 326 327 327 330 330 336 335 339 326 317 313 304 319 310 317 319 319 313 311 312 313 311 309 311 310 312 307 304 300 301 302 301
275 281 288 296 304 307 312 316 319 322 325 328 329 330 331 330 332 336 338 339 339 333 322 325 316 314 315 320 323 328 330 325 323 310 308 307 303 308 310 311 306 304 302 300 301 302 299
275 275 284 292 299 306 309 313 316 319 322 324 326 328 330 331 334 338 342 341 342 340 325 328 335 335 337 342 339 341 342 340 330 322 318 307 309 321 316 312 308 306 304 304 302 302 298
266 277 284 291 295 302 306 310 312 315 319 322 324 326 328 328 333 338 338 342 342 344 321 323 335 351 350 347 340 346 347 337 330 323 321 313 316 314 312 308 307 305 310 308 305 302 299
271 281 287 291 297 301 304 306 309 311 316 318 322 325 328 334 331 336 336 337 338 344 312 328 332 354 346 334 334 329 338 328 321 319 319 315 314 309 306 308 311 307 315 307 305 301 300
275 285 287 292 301 302 305 306 309 310 312 315 318 322 325 331 331 335 332 329 337 318 306 319 328 327 323 322 320 324 322 325 322 315 309 305 308 306 306 307 306 307 307 304 303 300 293
279 286 289 294 300 301 306 309 313 312 312 312 313 317 320 323 321 328 327 330 314 303 323 315 316 319 314 309 309 311 310 309 310 309 307 308 302 304 304 304 303 300 299 299 296 292 294
283 286 291 297 301 304 307 308 312 312 313 311 309 311 313 312 319 325 323 313 298 308 306 318 313 308 303 305 303 304 303 302 300 299 302 302 302 303 297 296 302 293 293 291 296 296 299
286 289 292 301 304 305 309 311 312 314 312 308 312 308 307 315 316 321 310 292 300 308 313 302 306 303 300 297 296 302 300 298 299 300 291 299 299 306 299 300 298 298 286 296 293 293 293
283 289 293 296 297 302 306 307 306 310 312 313 307 306 300 303 308 309 296 287 298 311 310 307 299 304 300 299 298 297 302 310 309 305 298 296 293 290 291 293 291 289 295 293 289 289 289
290 293 294 298 303 303 308 313 311 309 311 314 308 303 312 299 297 292 286 289 298 295 297 301 297 295 295 296 295 294 295 300 304 303 302 299 293 291 288 281 287 288 280 282 286 284 288
295 297 301 303 305 312 313 312 314 312 311 305 303 296 311 302 288 289 285 284 295 290 293 294 295 295 294 294 292 291 290 292 302 304 297 295 296 291 286 288 289 284 281 283 282 285 283
299 302 304 307 310 310 310 308 307 308 306 304 298 295 305 297 289 286 291 290 288 287 287 291 292 293 294 292 291 290 290 292 290 287 287 293 290 291 288 285 283 283 282 280 282 283 281
305 306 307 308 308 308 309 309 309 308 309 303 301 298 297 291 286 290 291 290 290 288 291 290 289 289 291 292 291 295 293 293 295 292 296 298 284 281 286 289 304 295 293 290 286 279 284
304 304 305 307 309 310 310 312 310 309 311 303 297 295 298 296 292 287 287 291 289 290 291 288 295 285 284 289 288 286 289 291 289 290 292 293 285 285 285 287 285 289 287 287 288 288 286
304 304 306 307 308 308 308 311 314 309 310 298 298 296 298 292 293 294 291 291 289 292 289 294 284 288 291 291 287 292 293 295 293 299 295 284 283 290 287 288 287 287 286 285 285 286 287
302 305 306 306 307 309 310 311 313 318 310 304 303 302 300 299 292 289 292 293 295 295 294 293 299 300 295 290 292 289 293 291 293 294 296 290 291 292 288 293 292 286 286 286 288 290 290
302 304 305 305 307 309 310 310 309 307 303 304 305 305 297 291 288 289 290 293 297 298 294 292 293 295 303 303 298 293 291 290 288 285 286 286 286 288 294 297 287 297 299 295 294 298 299
300 300 299 300 303 305 305 305 304 303 299 297 299 299 299 293 294 291 290 291 288 286 291 292 291 292 300 308 294 297 292 292 285 279 273 274 283 289 291 291 298 300 300 295 298 301 306
295 293 292 295 298 300 302 302 302 302 302 298 295 297 297 296 294 297 297 291 289 288 289 285 285 292 296 299 293 287 290 299 300 304 248 258 257 278 288 297 298 312 321 331 308 304 309
287 286 286 287 291 295 298 299 301 300 299 298 296 293 294 292 292 295 296 300 300 292 287 287 289 284 287 293 285 285 284 294 293 298 303 291 278 263 274 290 303 312 321 321 308 308 315
279 278 278 279 283 288 293 296 299 301 299 296 295 290 284 289 287 284 284 289 287 283 282 290 294 284 285 290 287 290 288 289 285 289 297 297 303 299 284 290 300 313 316 301 303 314 315
239 233 232 241 256 271 283 292 300 303 304 302 299 297 290 283 282 281 279 279 277 272 270 277 276 277 277 276 290 302 293 295 297 290 283 287 296 299 306 306 316 317 308 318 309 298 296